Year,Month,Day,Hour,Minute,Value (Times are PST for temperature in C)
2008,04,27,00,00,9.30
2008,04,27,00,01,9.30
2008,04,27,00,02,9.30
2008,04,27,00,03,9.20
2008,04,27,00,04,9.20
2008,04,27,00,05,9.20
2008,04,27,00,06,9.20
2008,04,27,00,07,9.20
2008,04,27,00,08,9.20
2008,04,27,00,09,9.20
2008,04,27,00,10,9.20
2008,04,27,00,11,9.20
2008,04,27,00,12,9.20
2008,04,27,00,13,9.10
2008,04,27,00,14,9.10
2008,04,27,00,15,9.10
2008,04,27,00,16,9.10
2008,04,27,00,17,9.10
2008,04,27,00,18,9.10
2008,04,27,00,19,9.10
2008,04,27,00,20,9.10
2008,04,27,00,21,9.00
2008,04,27,00,22,9.00
2008,04,27,00,23,9.00
2008,04,27,00,24,9.00
2008,04,27,00,25,9.00
2008,04,27,00,26,9.00
2008,04,27,00,27,8.90
2008,04,27,00,28,9.00
2008,04,27,00,29,9.00
2008,04,27,00,30,9.00
2008,04,27,00,31,9.00
2008,04,27,00,32,8.90
2008,04,27,00,33,8.90
2008,04,27,00,34,8.90
2008,04,27,00,35,8.90
2008,04,27,00,36,8.90
2008,04,27,00,37,8.90
2008,04,27,00,38,8.90
2008,04,27,00,39,8.90
2008,04,27,00,40,8.90
2008,04,27,00,41,8.80
2008,04,27,00,42,8.80
2008,04,27,00,43,8.80
2008,04,27,00,44,8.80
2008,04,27,00,45,8.80
2008,04,27,00,46,8.70
2008,04,27,00,47,8.70
2008,04,27,00,48,8.70
2008,04,27,00,49,8.60
2008,04,27,00,50,8.60
2008,04,27,00,51,8.60
2008,04,27,00,52,8.60
2008,04,27,00,53,8.50
2008,04,27,00,54,8.50
2008,04,27,00,55,8.40
2008,04,27,00,56,8.40
2008,04,27,00,57,8.40
2008,04,27,00,58,8.40
2008,04,27,00,59,8.40
2008,04,27,01,00,8.40
2008,04,27,01,01,8.40
2008,04,27,01,02,8.40
2008,04,27,01,03,8.30
2008,04,27,01,04,8.30
2008,04,27,01,05,8.30
2008,04,27,01,06,8.30
2008,04,27,01,07,8.30
2008,04,27,01,08,8.30
2008,04,27,01,09,8.30
2008,04,27,01,10,8.30
2008,04,27,01,11,8.30
2008,04,27,01,12,8.20
2008,04,27,01,13,8.20
2008,04,27,01,14,8.20
2008,04,27,01,15,8.20
2008,04,27,01,16,8.20
2008,04,27,01,17,8.20
2008,04,27,01,18,8.20
2008,04,27,01,19,8.20
2008,04,27,01,20,8.20
2008,04,27,01,21,8.20
2008,04,27,01,22,8.20
2008,04,27,01,23,8.20
2008,04,27,01,24,8.20
2008,04,27,01,25,8.20
2008,04,27,01,26,8.20
2008,04,27,01,27,8.20
2008,04,27,01,28,8.20
2008,04,27,01,29,8.10
2008,04,27,01,30,8.10
2008,04,27,01,31,8.10
2008,04,27,01,32,8.10
2008,04,27,01,33,8.10
2008,04,27,01,34,8.10
2008,04,27,01,35,8.10
2008,04,27,01,36,8.00
2008,04,27,01,37,8.00
2008,04,27,01,38,8.00
2008,04,27,01,39,8.00
2008,04,27,01,40,8.00
2008,04,27,01,41,8.00
2008,04,27,01,42,8.00
2008,04,27,01,43,8.00
2008,04,27,01,44,7.90
2008,04,27,01,45,7.90
2008,04,27,01,46,7.90
2008,04,27,01,47,7.90
2008,04,27,01,48,7.90
2008,04,27,01,49,7.90
2008,04,27,01,50,7.80
2008,04,27,01,51,7.80
2008,04,27,01,52,7.80
2008,04,27,01,53,7.80
2008,04,27,01,54,7.80
2008,04,27,01,55,7.80
2008,04,27,01,56,7.80
2008,04,27,01,57,7.80
2008,04,27,01,58,7.70
2008,04,27,01,59,7.70
2008,04,27,02,00,7.70
2008,04,27,02,01,7.70
2008,04,27,02,02,7.70
2008,04,27,02,03,7.60
2008,04,27,02,04,7.60
2008,04,27,02,05,7.60
2008,04,27,02,06,7.60
2008,04,27,02,07,7.60
2008,04,27,02,08,7.60
2008,04,27,02,09,7.60
2008,04,27,02,10,7.60
2008,04,27,02,11,7.50
2008,04,27,02,12,7.50
2008,04,27,02,13,7.50
2008,04,27,02,14,7.50
2008,04,27,02,15,7.40
2008,04,27,02,16,7.40
2008,04,27,02,17,7.40
2008,04,27,02,18,7.40
2008,04,27,02,19,7.40
2008,04,27,02,20,7.40
2008,04,27,02,21,7.40
2008,04,27,02,22,7.40
2008,04,27,02,23,7.40
2008,04,27,02,24,7.30
2008,04,27,02,25,7.30
2008,04,27,02,26,7.30
2008,04,27,02,27,7.30
2008,04,27,02,28,7.30
2008,04,27,02,29,7.30
2008,04,27,02,30,7.30
2008,04,27,02,31,7.30
2008,04,27,02,32,7.30
2008,04,27,02,33,7.40
2008,04,27,02,34,7.40
2008,04,27,02,35,7.40
2008,04,27,02,36,7.40
2008,04,27,02,37,7.40
2008,04,27,02,38,7.40
2008,04,27,02,39,7.50
2008,04,27,02,40,7.50
2008,04,27,02,41,7.50
2008,04,27,02,42,7.50
2008,04,27,02,43,7.50
2008,04,27,02,44,7.50
2008,04,27,02,45,7.50
2008,04,27,02,46,7.50
2008,04,27,02,47,7.40
2008,04,27,02,48,7.40
2008,04,27,02,49,7.40
2008,04,27,02,50,7.40
2008,04,27,02,51,7.40
2008,04,27,02,52,7.40
2008,04,27,02,53,7.40
2008,04,27,02,54,7.40
2008,04,27,02,55,7.30
2008,04,27,02,56,7.30
2008,04,27,02,57,7.30
2008,04,27,02,58,7.30
2008,04,27,02,59,7.30
2008,04,27,03,00,7.30
2008,04,27,03,01,7.20
2008,04,27,03,02,7.20
2008,04,27,03,03,7.20
2008,04,27,03,04,7.20
2008,04,27,03,05,7.30
2008,04,27,03,06,7.30
2008,04,27,03,07,7.30
2008,04,27,03,08,7.30
2008,04,27,03,09,7.30
2008,04,27,03,10,7.30
2008,04,27,03,11,7.30
2008,04,27,03,12,7.30
2008,04,27,03,13,7.30
2008,04,27,03,14,7.30
2008,04,27,03,15,7.30
2008,04,27,03,16,7.30
2008,04,27,03,17,7.30
2008,04,27,03,18,7.30
2008,04,27,03,19,7.30
2008,04,27,03,20,7.30
2008,04,27,03,21,7.30
2008,04,27,03,22,7.30
2008,04,27,03,23,7.30
2008,04,27,03,24,7.40
2008,04,27,03,25,7.40
2008,04,27,03,26,7.40
2008,04,27,03,27,7.40
2008,04,27,03,28,7.40
2008,04,27,03,29,7.40
2008,04,27,03,30,7.40
2008,04,27,03,31,7.40
2008,04,27,03,32,7.40
2008,04,27,03,33,7.40
2008,04,27,03,34,7.40
2008,04,27,03,35,7.50
2008,04,27,03,36,7.50
2008,04,27,03,37,7.50
2008,04,27,03,38,7.50
2008,04,27,03,39,7.50
2008,04,27,03,40,7.50
2008,04,27,03,41,7.50
2008,04,27,03,42,7.50
2008,04,27,03,43,7.50
2008,04,27,03,44,7.50
2008,04,27,03,45,7.50
2008,04,27,03,46,7.40
2008,04,27,03,47,7.40
2008,04,27,03,48,7.40
2008,04,27,03,49,7.40
2008,04,27,03,50,7.40
2008,04,27,03,51,7.40
2008,04,27,03,52,7.40
2008,04,27,03,53,7.40
2008,04,27,03,54,7.30
2008,04,27,03,55,7.30
2008,04,27,03,56,7.30
2008,04,27,03,57,7.30
2008,04,27,03,58,7.30
2008,04,27,03,59,7.20
2008,04,27,04,00,7.20
2008,04,27,04,01,7.20
2008,04,27,04,02,7.20
2008,04,27,04,03,7.20
2008,04,27,04,04,7.20
2008,04,27,04,05,7.20
2008,04,27,04,06,7.20
2008,04,27,04,07,7.20
2008,04,27,04,08,7.20
2008,04,27,04,09,7.20
2008,04,27,04,10,7.20
2008,04,27,04,11,7.20
2008,04,27,04,12,7.20
2008,04,27,04,13,7.20
2008,04,27,04,14,7.10
2008,04,27,04,15,7.10
2008,04,27,04,16,7.10
2008,04,27,04,17,7.10
2008,04,27,04,18,7.10
2008,04,27,04,19,7.10
2008,04,27,04,20,7.10
2008,04,27,04,21,7.10
2008,04,27,04,22,7.10
2008,04,27,04,23,7.10
2008,04,27,04,24,7.10
2008,04,27,04,25,7.10
2008,04,27,04,26,7.10
2008,04,27,04,27,7.10
2008,04,27,04,28,7.10
2008,04,27,04,29,7.10
2008,04,27,04,30,7.10
2008,04,27,04,31,7.10
2008,04,27,04,32,7.10
2008,04,27,04,33,7.00
2008,04,27,04,34,7.00
2008,04,27,04,35,7.00
2008,04,27,04,36,7.10
2008,04,27,04,37,7.00
2008,04,27,04,38,7.00
2008,04,27,04,39,7.00
2008,04,27,04,40,7.00
2008,04,27,04,41,7.00
2008,04,27,04,42,7.00
2008,04,27,04,43,7.00
2008,04,27,04,44,7.00
2008,04,27,04,45,7.00
2008,04,27,04,46,7.00
2008,04,27,04,47,7.00
2008,04,27,04,48,7.00
2008,04,27,04,49,7.00
2008,04,27,04,50,7.00
2008,04,27,04,51,7.00
2008,04,27,04,52,7.00
2008,04,27,04,53,6.90
2008,04,27,04,54,6.90
2008,04,27,04,55,6.90
2008,04,27,04,56,6.90
2008,04,27,04,57,6.90
2008,04,27,04,58,6.90
2008,04,27,04,59,6.90
2008,04,27,05,00,6.90
2008,04,27,05,01,6.90
2008,04,27,05,02,6.90
2008,04,27,05,03,6.90
2008,04,27,05,04,6.90
2008,04,27,05,05,6.90
2008,04,27,05,06,6.90
2008,04,27,05,07,6.90
2008,04,27,05,08,6.90
2008,04,27,05,09,6.80
2008,04,27,05,10,6.80
2008,04,27,05,11,6.80
2008,04,27,05,12,6.80
2008,04,27,05,13,6.80
2008,04,27,05,14,6.80
2008,04,27,05,15,6.80
2008,04,27,05,16,6.80
2008,04,27,05,17,6.80
2008,04,27,05,18,6.80
2008,04,27,05,19,6.80
2008,04,27,05,20,6.80
2008,04,27,05,21,6.80
2008,04,27,05,22,6.80
2008,04,27,05,23,6.80
2008,04,27,05,24,6.80
2008,04,27,05,25,6.80
2008,04,27,05,26,6.80
2008,04,27,05,27,6.80
2008,04,27,05,28,6.80
2008,04,27,05,29,6.80
2008,04,27,05,30,6.80
2008,04,27,05,31,6.80
2008,04,27,05,32,6.80
2008,04,27,05,33,6.80
2008,04,27,05,34,6.80
2008,04,27,05,35,6.80
2008,04,27,05,36,6.80
2008,04,27,05,37,6.90
2008,04,27,05,38,6.90
2008,04,27,05,39,6.90
2008,04,27,05,40,6.90
2008,04,27,05,41,6.90
2008,04,27,05,42,6.90
2008,04,27,05,43,6.90
2008,04,27,05,44,6.90
2008,04,27,05,45,6.90
2008,04,27,05,46,6.90
2008,04,27,05,47,6.90
2008,04,27,05,48,6.90
2008,04,27,05,49,6.90
2008,04,27,05,50,6.90
2008,04,27,05,51,6.90
2008,04,27,05,52,6.90
2008,04,27,05,53,6.90
2008,04,27,05,54,6.90
2008,04,27,05,55,6.90
2008,04,27,05,56,6.90
2008,04,27,09,03,10.10
2008,04,27,09,04,10.20
2008,04,27,09,05,10.30
2008,04,27,09,06,10.30
2008,04,27,09,07,10.40
2008,04,27,09,08,10.40
2008,04,27,09,09,10.50
2008,04,27,09,10,10.60
2008,04,27,09,11,10.60
2008,04,27,09,12,10.70
2008,04,27,09,13,10.80
2008,04,27,09,14,10.80
2008,04,27,09,15,10.90
2008,04,27,09,16,11.00
2008,04,27,09,17,11.10
2008,04,27,09,18,11.10
2008,04,27,09,19,11.20
2008,04,27,09,20,11.20
2008,04,27,09,21,11.30
2008,04,27,09,22,11.30
2008,04,27,09,23,11.30
2008,04,27,09,24,11.40
2008,04,27,09,25,11.40
2008,04,27,09,26,11.40
2008,04,27,09,27,11.40
2008,04,27,09,28,11.50
2008,04,27,09,29,11.50
2008,04,27,09,30,11.50
2008,04,27,09,31,11.50
2008,04,27,09,32,11.50
2008,04,27,09,33,11.60
2008,04,27,09,34,11.60
2008,04,27,09,35,11.60
2008,04,27,09,36,11.60
2008,04,27,09,37,11.60
2008,04,27,09,38,11.60
2008,04,27,09,39,11.60
2008,04,27,09,40,11.60
2008,04,27,09,41,11.60
2008,04,27,09,42,11.60
2008,04,27,09,43,11.60
2008,04,27,09,44,11.60
2008,04,27,09,45,11.60
2008,04,27,09,46,11.60
2008,04,27,09,47,11.60
2008,04,27,09,48,11.60
2008,04,27,09,49,11.60
2008,04,27,09,50,11.60
2008,04,27,09,51,11.60
2008,04,27,09,52,11.60
2008,04,27,09,53,11.60
2008,04,27,09,54,11.60
2008,04,27,09,55,11.60
2008,04,27,09,56,11.70
2008,04,27,09,57,11.70
2008,04,27,09,58,11.60
2008,04,27,09,59,11.60
2008,04,27,10,00,11.60
2008,04,27,10,01,11.60
2008,04,27,10,02,11.50
2008,04,27,10,03,11.50
2008,04,27,10,04,11.50
2008,04,27,10,05,11.50
2008,04,27,10,06,11.50
2008,04,27,10,07,11.50
2008,04,27,10,08,11.50
2008,04,27,10,09,11.50
2008,04,27,10,10,11.50
2008,04,27,10,11,11.50
2008,04,27,10,12,11.50
2008,04,27,10,13,11.60
2008,04,27,10,14,11.60
2008,04,27,10,15,11.60
2008,04,27,10,16,11.60
2008,04,27,10,17,11.60
2008,04,27,10,18,11.50
2008,04,27,10,19,11.50
2008,04,27,10,20,11.50
2008,04,27,10,21,11.60
2008,04,27,10,22,11.60
2008,04,27,10,23,11.60
2008,04,27,10,24,11.50
2008,04,27,10,25,11.50
2008,04,27,10,26,11.50
2008,04,27,10,27,11.50
2008,04,27,10,28,11.40
2008,04,27,10,29,11.40
2008,04,27,10,30,11.50
2008,04,27,10,31,11.40
2008,04,27,10,32,11.50
2008,04,27,10,33,11.50
2008,04,27,10,34,11.50
2008,04,27,10,35,11.50
2008,04,27,10,36,11.60
2008,04,27,10,37,11.60
2008,04,27,10,38,11.60
2008,04,27,10,39,11.60
2008,04,27,10,40,11.60
2008,04,27,10,41,11.60
2008,04,27,10,42,11.60
2008,04,27,10,43,11.60
2008,04,27,10,44,11.60
2008,04,27,10,45,11.60
2008,04,27,10,46,11.60
2008,04,27,10,47,11.60
2008,04,27,10,48,11.60
2008,04,27,10,49,11.50
2008,04,27,10,50,11.50
2008,04,27,10,51,11.50
2008,04,27,10,52,11.40
2008,04,27,10,53,11.40
2008,04,27,10,54,11.40
2008,04,27,10,55,11.40
2008,04,27,10,56,11.30
2008,04,27,10,57,11.30
2008,04,27,10,58,11.30
2008,04,27,10,59,11.20
2008,04,27,11,00,11.20
2008,04,27,11,01,11.10
2008,04,27,11,02,11.10
2008,04,27,11,03,11.00
2008,04,27,11,04,11.00
2008,04,27,11,05,10.90
2008,04,27,11,06,10.80
2008,04,27,11,07,10.80
2008,04,27,11,08,10.80
2008,04,27,11,09,10.70
2008,04,27,11,10,10.70
2008,04,27,11,11,10.60
2008,04,27,11,12,10.60
2008,04,27,11,13,10.60
2008,04,27,11,14,10.50
2008,04,27,11,15,10.50
2008,04,27,11,16,10.50
2008,04,27,11,17,10.50
2008,04,27,11,18,10.50
2008,04,27,11,19,10.50
2008,04,27,11,20,10.50
2008,04,27,11,21,10.50
2008,04,27,11,22,10.50
2008,04,27,11,23,10.50
2008,04,27,11,24,10.50
2008,04,27,11,25,10.50
2008,04,27,11,26,10.50
2008,04,27,11,27,10.40
2008,04,27,11,28,10.30
2008,04,27,11,29,10.30
2008,04,27,11,30,10.20
2008,04,27,11,31,10.20
2008,04,27,11,32,10.10
2008,04,27,11,33,10.10
2008,04,27,11,34,10.00
2008,04,27,11,35,10.00
2008,04,27,11,36,10.00
2008,04,27,11,37,9.90
2008,04,27,11,38,9.90
2008,04,27,11,39,9.90
2008,04,27,11,40,9.90
2008,04,27,11,41,9.80
2008,04,27,11,42,9.80
2008,04,27,11,43,9.80
2008,04,27,11,44,9.70
2008,04,27,11,45,9.70
2008,04,27,11,46,9.70
2008,04,27,11,47,9.80
2008,04,27,11,48,9.80
2008,04,27,11,49,9.80
2008,04,27,11,50,9.90
2008,04,27,11,51,10.00
2008,04,27,11,52,10.00
2008,04,27,11,53,10.10
2008,04,27,11,54,10.10
2008,04,27,11,55,10.10
2008,04,27,11,56,10.10
2008,04,27,11,57,10.20
2008,04,27,11,58,10.20
2008,04,27,11,59,10.20
2008,04,27,12,00,10.20
2008,04,27,12,01,10.20
2008,04,27,12,02,10.20
2008,04,27,12,03,10.20
2008,04,27,12,04,10.10
2008,04,27,12,05,10.10
2008,04,27,12,06,10.10
2008,04,27,12,07,10.10
2008,04,27,12,08,10.10
2008,04,27,12,09,10.10
2008,04,27,12,10,10.00
2008,04,27,12,11,10.00
2008,04,27,12,12,9.90
2008,04,27,12,13,9.90
2008,04,27,12,14,9.90
2008,04,27,12,15,9.90
2008,04,27,12,16,9.90
2008,04,27,12,17,9.90
2008,04,27,12,18,9.90
2008,04,27,12,19,9.90
2008,04,27,12,20,9.90
2008,04,27,12,21,9.90
2008,04,27,12,22,9.80
2008,04,27,12,23,9.80
2008,04,27,12,24,9.80
2008,04,27,12,25,9.80
2008,04,27,12,26,9.80
2008,04,27,12,27,9.80
2008,04,27,12,28,9.80
2008,04,27,12,29,9.90
2008,04,27,12,30,9.90
2008,04,27,12,31,9.90
2008,04,27,12,32,9.90
2008,04,27,12,33,9.90
2008,04,27,12,34,9.90
2008,04,27,12,35,9.90
2008,04,27,12,36,10.00
2008,04,27,12,37,10.00
2008,04,27,12,38,10.00
2008,04,27,12,39,10.00
2008,04,27,12,40,10.00
2008,04,27,12,41,9.90
2008,04,27,12,42,9.90
2008,04,27,12,43,9.80
2008,04,27,12,44,9.80
2008,04,27,12,45,9.80
2008,04,27,12,46,9.80
2008,04,27,12,47,9.80
2008,04,27,12,48,9.80
2008,04,27,12,49,9.80
2008,04,27,12,50,9.80
2008,04,27,12,51,9.80
2008,04,27,12,52,9.80
2008,04,27,12,53,9.80
2008,04,27,12,54,9.80
2008,04,27,12,55,9.80
2008,04,27,12,56,9.80
2008,04,27,12,57,9.80
2008,04,27,12,58,9.90
2008,04,27,12,59,9.90
2008,04,27,13,00,9.90
2008,04,27,13,01,9.90
2008,04,27,13,02,9.90
2008,04,27,13,03,9.90
2008,04,27,13,04,10.00
2008,04,27,13,05,10.00
2008,04,27,13,06,10.00
2008,04,27,13,07,10.00
2008,04,27,13,08,10.10
2008,04,27,13,09,10.10
2008,04,27,13,10,10.10
2008,04,27,13,11,10.00
2008,04,27,13,12,9.90
2008,04,27,13,13,9.90
2008,04,27,13,14,9.80
2008,04,27,13,15,9.80
2008,04,27,13,16,9.80
2008,04,27,13,17,9.70
2008,04,27,13,18,9.60
2008,04,27,13,19,9.60
2008,04,27,13,20,9.60
2008,04,27,13,21,9.50
2008,04,27,13,22,9.60
2008,04,27,13,23,9.60
2008,04,27,13,24,9.60
2008,04,27,13,25,9.50
2008,04,27,13,26,9.50
2008,04,27,13,27,9.50
2008,04,27,13,28,9.50
2008,04,27,13,29,9.50
2008,04,27,13,30,9.50
2008,04,27,13,31,9.40
2008,04,27,13,32,9.40
2008,04,27,13,33,9.40
2008,04,27,13,34,9.50
2008,04,27,13,35,9.50
2008,04,27,13,36,9.60
2008,04,27,13,37,9.60
2008,04,27,13,38,9.70
2008,04,27,13,39,9.70
2008,04,27,13,40,9.70
2008,04,27,13,41,9.70
2008,04,27,13,42,9.60
2008,04,27,13,43,9.60
2008,04,27,13,44,9.60
2008,04,27,13,45,9.60
2008,04,27,13,46,9.60
2008,04,27,13,47,9.60
2008,04,27,13,48,9.60
2008,04,27,13,49,9.60
2008,04,27,13,50,9.60
2008,04,27,13,51,9.60
2008,04,27,13,52,9.60
2008,04,27,13,53,9.60
2008,04,27,13,54,9.70
2008,04,27,13,55,9.70
2008,04,27,13,56,9.70
2008,04,27,13,57,9.80
2008,04,27,13,58,9.80
2008,04,27,13,59,9.90
2008,04,27,14,00,9.90
2008,04,27,14,01,9.90
2008,04,27,14,02,10.00
2008,04,27,14,03,10.00
2008,04,27,14,04,10.10
2008,04,27,14,05,10.10
2008,04,27,14,06,10.10
2008,04,27,14,07,10.00
2008,04,27,14,08,10.00
2008,04,27,14,09,9.90
2008,04,27,14,10,9.90
2008,04,27,14,11,9.90
2008,04,27,14,12,10.00
2008,04,27,14,13,10.10
2008,04,27,14,14,10.20
2008,04,27,14,15,10.30
2008,04,27,14,16,10.30
2008,04,27,14,17,10.40
2008,04,27,14,18,10.40
2008,04,27,14,19,10.50
2008,04,27,14,20,10.60
2008,04,27,14,21,10.60
2008,04,27,14,22,10.60
2008,04,27,14,23,10.70
2008,04,27,14,24,10.80
2008,04,27,14,25,10.90
2008,04,27,14,26,11.00
2008,04,27,14,27,11.00
2008,04,27,14,28,11.10
2008,04,27,14,29,11.20
2008,04,27,14,30,11.30
2008,04,27,14,31,11.40
2008,04,27,14,32,11.50
2008,04,27,14,33,11.60
2008,04,27,14,34,11.50
2008,04,27,14,35,11.50
2008,04,27,14,36,11.40
2008,04,27,14,37,11.50
2008,04,27,14,38,11.50
2008,04,27,14,39,11.50
2008,04,27,14,40,11.50
2008,04,27,14,41,11.60
2008,04,27,14,42,11.70
2008,04,27,14,43,11.80
2008,04,27,14,44,11.90
2008,04,27,14,45,12.00
2008,04,27,14,46,12.00
2008,04,27,14,47,12.10
2008,04,27,14,48,12.10
2008,04,27,14,49,12.10
2008,04,27,14,50,12.20
2008,04,27,14,51,12.30
2008,04,27,14,52,12.40
2008,04,27,14,53,12.40
2008,04,27,14,54,12.30
2008,04,27,14,55,12.30
2008,04,27,14,56,12.20
2008,04,27,14,57,12.10
2008,04,27,14,58,12.10
2008,04,27,14,59,12.10
2008,04,27,15,00,12.10
2008,04,27,15,01,12.10
2008,04,27,15,02,12.20
2008,04,27,15,03,12.20
2008,04,27,15,04,12.20
2008,04,27,15,05,12.10
2008,04,27,15,06,12.00
2008,04,27,15,07,11.90
2008,04,27,15,08,11.90
2008,04,27,15,09,11.90
2008,04,27,15,10,11.80
2008,04,27,15,11,11.80
2008,04,27,15,12,11.80
2008,04,27,15,13,11.80
2008,04,27,15,14,11.80
2008,04,27,15,15,11.80
2008,04,27,15,16,11.80
2008,04,27,15,17,11.80
2008,04,27,15,18,11.80
2008,04,27,15,19,11.80
2008,04,27,15,20,11.80
2008,04,27,15,21,11.80
2008,04,27,15,22,11.80
2008,04,27,15,23,11.80
2008,04,27,15,24,11.80
2008,04,27,15,25,11.80
2008,04,27,15,26,11.80
2008,04,27,15,27,11.80
2008,04,27,15,28,11.90
2008,04,27,15,29,11.90
2008,04,27,15,30,11.90
2008,04,27,15,31,11.90
2008,04,27,15,32,11.90
2008,04,27,15,33,11.90
2008,04,27,15,34,11.90
2008,04,27,15,35,11.90
2008,04,27,15,36,11.80
2008,04,27,15,37,11.80
2008,04,27,15,38,11.80
2008,04,27,15,39,11.70
2008,04,27,15,40,11.70
2008,04,27,15,41,11.70
2008,04,27,15,42,11.70
2008,04,27,15,43,11.60
2008,04,27,15,44,11.40
2008,04,27,15,45,11.30
2008,04,27,15,46,11.10
2008,04,27,15,47,10.90
2008,04,27,15,48,10.70
2008,04,27,15,49,10.60
2008,04,27,15,50,10.50
2008,04,27,15,51,10.40
2008,04,27,15,52,10.30
2008,04,27,15,53,10.20
2008,04,27,15,54,10.20
2008,04,27,15,55,10.10
2008,04,27,15,56,10.10
2008,04,27,15,57,10.10
2008,04,27,15,58,10.00
2008,04,27,15,59,10.00
2008,04,27,16,00,10.00
2008,04,27,16,01,10.10
2008,04,27,16,02,10.00
2008,04,27,16,03,10.00
2008,04,27,16,04,10.00
2008,04,27,16,05,10.00
2008,04,27,16,06,10.00
2008,04,27,16,07,10.10
2008,04,27,16,08,10.10
2008,04,27,16,09,10.10
2008,04,27,16,10,10.10
2008,04,27,16,11,10.20
2008,04,27,16,12,10.20
2008,04,27,16,13,10.30
2008,04,27,16,14,10.30
2008,04,27,16,15,10.30
2008,04,27,16,16,10.30
2008,04,27,16,17,10.30
2008,04,27,16,18,10.30
2008,04,27,16,19,10.40
2008,04,27,16,20,10.40
2008,04,27,16,21,10.40
2008,04,27,16,22,10.50
2008,04,27,16,23,10.50
2008,04,27,16,24,10.50
2008,04,27,16,25,10.50
2008,04,27,16,26,10.50
2008,04,27,16,27,10.50
2008,04,27,16,28,10.50
2008,04,27,16,29,10.40
2008,04,27,16,30,10.40
2008,04,27,16,31,10.50
2008,04,27,16,32,10.50
2008,04,27,16,33,10.50
2008,04,27,16,34,10.50
2008,04,27,16,35,10.50
2008,04,27,16,36,10.60
2008,04,27,16,37,10.60
2008,04,27,16,38,10.60
2008,04,27,16,39,10.60
2008,04,27,16,40,10.60
2008,04,27,16,41,10.60
2008,04,27,16,42,10.60
2008,04,27,16,43,10.60
2008,04,27,16,44,10.60
2008,04,27,16,45,10.60
2008,04,27,16,46,10.60
2008,04,27,16,47,10.60
2008,04,27,16,48,10.60
2008,04,27,16,49,10.60
2008,04,27,16,50,10.60
2008,04,27,16,51,10.60
2008,04,27,16,52,10.60
2008,04,27,16,53,10.60
2008,04,27,16,54,10.60
2008,04,27,16,55,10.70
2008,04,27,16,56,10.70
2008,04,27,16,57,10.80
2008,04,27,16,58,10.80
2008,04,27,16,59,10.80
2008,04,27,17,00,10.90
2008,04,27,17,01,10.90
2008,04,27,17,02,10.90
2008,04,27,17,03,10.90
2008,04,27,17,04,10.90
2008,04,27,17,05,10.90
2008,04,27,17,06,10.90
2008,04,27,17,07,10.90
2008,04,27,17,08,10.90
2008,04,27,17,09,11.00
2008,04,27,17,10,11.00
2008,04,27,17,11,11.00
2008,04,27,17,12,11.00
2008,04,27,17,13,11.00
2008,04,27,17,14,10.90
2008,04,27,17,15,10.90
2008,04,27,17,16,10.90
2008,04,27,17,17,10.90
2008,04,27,17,18,10.90
2008,04,27,17,19,11.00
2008,04,27,17,20,11.00
2008,04,27,17,21,11.00
2008,04,27,17,22,11.00
2008,04,27,17,23,11.10
2008,04,27,17,24,11.10
2008,04,27,17,25,11.10
2008,04,27,17,26,11.00
2008,04,27,17,27,11.00
2008,04,27,17,28,10.90
2008,04,27,17,29,10.90
2008,04,27,17,30,10.90
2008,04,27,17,31,10.90
2008,04,27,17,32,10.90
2008,04,27,17,33,10.90
2008,04,27,17,34,10.80
2008,04,27,17,35,10.80
2008,04,27,17,36,10.80
2008,04,27,17,37,10.70
2008,04,27,17,38,10.70
2008,04,27,17,39,10.60
2008,04,27,17,40,10.60
2008,04,27,17,41,10.60
2008,04,27,17,42,10.70
2008,04,27,17,43,10.70
2008,04,27,17,44,10.60
2008,04,27,17,45,10.60
2008,04,27,17,46,10.60
2008,04,27,17,47,10.60
2008,04,27,17,48,10.60
2008,04,27,17,49,10.60
2008,04,27,17,50,10.60
2008,04,27,17,51,10.70
2008,04,27,17,52,10.70
2008,04,27,17,53,10.70
2008,04,27,17,54,10.70
2008,04,27,17,55,10.60
2008,04,27,17,56,10.60
2008,04,27,17,57,10.60
2008,04,27,17,58,10.60
2008,04,27,17,59,10.60
2008,04,27,18,00,10.60
2008,04,27,18,01,10.60
2008,04,27,18,02,10.60
2008,04,27,18,03,10.60
2008,04,27,18,04,10.60
2008,04,27,18,05,10.50
2008,04,27,18,06,10.60
2008,04,27,18,07,10.60
2008,04,27,18,08,10.60
2008,04,27,18,09,10.60
2008,04,27,18,10,10.60
2008,04,27,18,11,10.70
2008,04,27,18,12,10.70
2008,04,27,18,13,10.70
2008,04,27,18,14,10.70
2008,04,27,18,15,10.70
2008,04,27,18,16,10.70
2008,04,27,18,17,10.70
2008,04,27,18,18,10.70
2008,04,27,18,19,10.70
2008,04,27,18,20,10.80
2008,04,27,18,21,10.80
2008,04,27,18,22,10.80
2008,04,27,18,23,10.80
2008,04,27,18,24,10.80
2008,04,27,18,25,10.80
2008,04,27,18,26,10.80
2008,04,27,18,27,10.80
2008,04,27,18,28,10.80
2008,04,27,18,29,10.80
2008,04,27,18,30,10.90
2008,04,27,18,31,10.90
2008,04,27,18,32,10.90
2008,04,27,18,33,10.90
2008,04,27,18,34,10.90
2008,04,27,18,35,11.00
2008,04,27,18,36,11.00
2008,04,27,18,37,11.00
2008,04,27,18,38,11.00
2008,04,27,18,39,11.00
2008,04,27,18,40,11.00
2008,04,27,18,41,11.00
2008,04,27,18,42,11.00
2008,04,27,18,43,11.00
2008,04,27,18,44,11.00
2008,04,27,18,45,10.90
2008,04,27,18,46,10.90
2008,04,27,18,47,10.90
2008,04,27,18,48,10.80
2008,04,27,18,49,10.80
2008,04,27,18,50,10.80
2008,04,27,18,51,10.80
2008,04,27,18,52,10.80
2008,04,27,18,53,10.80
2008,04,27,18,54,10.80
2008,04,27,18,55,10.80
2008,04,27,18,56,10.80
2008,04,27,18,57,10.70
2008,04,27,18,58,10.70
2008,04,27,18,59,10.70
2008,04,27,19,00,10.70
2008,04,27,19,01,10.60
2008,04,27,19,02,10.60
2008,04,27,19,03,10.60
2008,04,27,19,04,10.60
2008,04,27,19,05,10.60
2008,04,27,19,06,10.60
2008,04,27,19,07,10.70
2008,04,27,19,08,10.60
2008,04,27,19,09,10.70
2008,04,27,19,10,10.70
2008,04,27,19,11,10.70
2008,04,27,19,12,10.70
2008,04,27,19,13,10.70
2008,04,27,19,14,10.70
2008,04,27,19,15,10.70
2008,04,27,19,16,10.60
2008,04,27,19,17,10.60
2008,04,27,19,18,10.60
2008,04,27,19,19,10.60
2008,04,27,19,20,10.60
2008,04,27,19,21,10.70
2008,04,27,19,22,10.70
2008,04,27,19,23,10.70
2008,04,27,19,24,10.60
2008,04,27,19,25,10.60
2008,04,27,19,26,10.60
2008,04,27,19,27,10.60
2008,04,27,19,28,10.60
2008,04,27,19,29,10.60
2008,04,27,19,30,10.60
2008,04,27,19,31,10.60
2008,04,27,19,32,10.60
2008,04,27,19,33,10.60
2008,04,27,19,34,10.60
2008,04,27,19,35,10.60
2008,04,27,19,36,10.60
2008,04,27,19,37,10.60
2008,04,27,19,38,10.60
2008,04,27,19,39,10.60
2008,04,27,19,40,10.60
2008,04,27,19,41,10.60
2008,04,27,19,42,10.60
2008,04,27,19,43,10.60
2008,04,27,19,44,10.60
2008,04,27,19,45,10.50
2008,04,27,19,46,10.40
2008,04,27,19,47,10.30
2008,04,27,19,48,10.20
2008,04,27,19,49,10.10
2008,04,27,19,50,10.10
2008,04,27,19,51,10.00
2008,04,27,19,52,9.90
2008,04,27,19,53,9.90
2008,04,27,19,54,9.90
2008,04,27,19,55,9.90
2008,04,27,19,56,9.90
2008,04,27,19,57,9.90
2008,04,27,19,58,9.90
2008,04,27,19,59,9.90
2008,04,27,20,00,9.80
2008,04,27,20,01,9.80
2008,04,27,20,02,9.80
2008,04,27,20,03,9.80
2008,04,27,20,04,9.70
2008,04,27,20,05,9.70
2008,04,27,20,06,9.70
2008,04,27,20,07,9.70
2008,04,27,20,08,9.70
2008,04,27,20,09,9.70
2008,04,27,20,10,9.70
2008,04,27,20,11,9.70
2008,04,27,20,12,9.70
2008,04,27,20,13,9.70
2008,04,27,20,14,9.70
2008,04,27,20,15,9.70
2008,04,27,20,16,9.70
2008,04,27,20,17,9.80
2008,04,27,20,18,9.80
2008,04,27,20,19,9.80
2008,04,27,20,20,9.80
2008,04,27,20,21,9.80
2008,04,27,20,22,9.80
2008,04,27,20,23,9.80
2008,04,27,20,24,9.80
2008,04,27,20,25,9.80
2008,04,27,20,26,9.80
2008,04,27,20,27,9.80
2008,04,27,20,28,9.80
2008,04,27,20,29,9.80
2008,04,27,20,30,9.80
2008,04,27,20,31,9.80
2008,04,27,20,32,9.80
2008,04,27,20,33,9.80
2008,04,27,20,34,9.80
2008,04,27,20,35,9.80
2008,04,27,20,36,9.80
2008,04,27,20,37,9.80
2008,04,27,20,38,9.80
2008,04,27,20,39,9.80
2008,04,27,20,40,9.80
2008,04,27,20,41,9.80
2008,04,27,20,42,9.80
2008,04,27,20,43,9.80
2008,04,27,20,44,9.80
2008,04,27,20,45,9.70
2008,04,27,20,46,9.70
2008,04,27,20,47,9.70
2008,04,27,20,48,9.60